Home > Weather > Remscheid > Past weeks

Flag for Germany Past Weather in Remscheid, North Rhine-Westphalia, Germany — Yesterday and Last 2 Weeks

Now
90 °F

Passing clouds.


Feels Like: 93 °F
Forecast: 65 / 85 °F
Wind: 10 mph from Northeast

Location: Duesseldorf

Current Time: Aug 27, 2016 at 3:50:03 PM

Latest Report: Aug 27, 2016 at 3:20 PM


Visibility: N/A

Pressure: 30.01 "Hg

Humidity: 49%

Dew Point: 68 °F

Location of RemscheidLocation

Past Weather in Remscheid — Graph

°F

Remscheid Temperature Yesterday

Maximum temperature yesterday: 91 °F (at 2:50 PM)
Minimum temperature yesterday: 72 °F (at 5:50 AM)
Average temperature yesterday: 81 °F

High & Low Weather Summary for the Past Weeks

 TemperatureHumidityPressure
High91 °F (Aug 25, 3:20 PM)100% (Aug 14, 12:50 AM)30.33 "Hg (Aug 14, 12:50 AM)
Low50 °F (Aug 18, 5:20 AM)26% (Aug 25, 3:20 PM)29.77 "Hg (Aug 18, 2:50 PM)
Average69 °F69%30.06 "Hg
* Reported Aug 12 2:20 PM — Aug 27 2:20 PM, Remscheid, Weather by CustomWeather, © 2016

Note: Actual official high and low records may vary slightly from our data, if they occured in-between our weather recording intervals... More about our weather records

Advertising

Remscheid Weather History for the Previous 24 Hours

Scroll right to see more
 ConditionsComfort  
Time TempWeatherWind HumidityBarometerVisibility
2:20 PM
Sat, Aug 27
88 °FPassing clouds.10 mph52%30.04 "HgN/A
1:50 PM84 °FPassing clouds.9 mph55%30.04 "HgN/A
1:20 PM84 °FPassing clouds.9 mph55%30.04 "HgN/A
12:50 PM82 °FPassing clouds.8 mph58%30.07 "HgN/A
12:20 PM81 °FPassing clouds.7 mph58%30.07 "HgN/A
11:50 AM79 °FPassing clouds.5 mph61%30.07 "HgN/A
11:20 AM79 °FPassing clouds.6 mph61%30.07 "HgN/A
10:50 AM77 °FPassing clouds.7 mph65%30.07 "HgN/A
10:20 AM73 °FPassing clouds.7 mph69%30.09 "HgN/A
9:50 AM73 °FPassing clouds.7 mph69%30.09 "HgN/A
9:20 AM72 °FSunny.8 mph73%30.09 "Hg10 mi
8:50 AM70 °FSunny.7 mph78%30.09 "Hg10 mi
8:20 AM68 °FSunny.8 mph78%30.09 "Hg10 mi
7:50 AM68 °FPassing clouds.7 mph78%30.07 "HgN/A
7:20 AM66 °FPassing clouds.7 mph88%30.07 "HgN/A
6:50 AM66 °FClear.7 mph88%30.07 "Hg10 mi
6:20 AM66 °FClear.5 mph88%30.07 "Hg10 mi
5:50 AM68 °FPassing clouds.5 mph83%30.07 "HgN/A
5:20 AM68 °FClear.6 mph83%30.07 "Hg10 mi
4:50 AM68 °FClear.7 mph88%30.07 "Hg10 mi
4:20 AM70 °FClear.6 mph83%30.07 "Hg10 mi
3:50 AM70 °FClear.6 mph83%30.07 "Hg10 mi
3:20 AM70 °FClear.7 mph83%30.07 "Hg10 mi
2:50 AM70 °FClear.9 mph83%30.07 "Hg10 mi
2:20 AM72 °FClear.8 mph83%30.07 "Hg10 mi
1:50 AM72 °FClear.7 mph83%30.09 "Hg10 mi
1:20 AM72 °FClear.7 mph83%30.07 "Hg10 mi
12:50 AM72 °FClear.6 mph83%30.07 "Hg10 mi
12:20 AM73 °FClear.7 mph78%30.07 "Hg10 mi
11:50 PM
Fri, Aug 26
73 °FClear.9 mph78%30.07 "Hg10 mi
11:20 PM75 °FClear.10 mph74%30.07 "Hg10 mi
10:50 PM75 °FClear.12 mph74%30.07 "Hg10 mi
10:20 PM77 °FClear.9 mph74%30.07 "Hg10 mi
9:50 PM79 °FClear.10 mph70%30.07 "Hg10 mi
9:20 PM79 °FSunny.12 mph70%30.04 "Hg10 mi
8:50 PM81 °FSunny.10 mph66%30.04 "Hg10 mi
8:20 PM82 °FSunny.7 mph62%30.04 "Hg10 mi
7:50 PM84 °FSunny.6 mph55%30.04 "Hg10 mi
7:20 PM86 °FSunny.7 mph52%30.01 "Hg10 mi
6:50 PM86 °FSunny.7 mph52%30.01 "Hg10 mi
6:20 PM88 °FPassing clouds.8 mph49%30.01 "HgN/A
5:50 PM88 °FPassing clouds.7 mph52%30.01 "HgN/A
5:20 PM90 °FSunny.8 mph49%30.01 "Hg10 mi
4:50 PM90 °FPassing clouds.8 mph49%30.01 "HgN/A
4:20 PM91 °FPassing clouds.8 mph44%30.01 "HgN/A
3:50 PM91 °FPassing clouds.6 mph44%30.01 "HgN/A
3:20 PM91 °FPassing clouds.7 mph46%30.01 "HgN/A
Weather by CustomWeather, © 2016

See weather overviewHow to use our weather pages